Voltar ao catálogo

STARLINK-30904

AtivoComunicaçõesVLEO
NORAD 58364·PAYLOAD·🇺🇸 United States

Lançado Nov 18, 2023 de Cape Canaveral Space Force Station

Loading…

Próximas Passagens (próximas 24 horas)

TLE

AtualizadoSource: CelesTrak SupGP

Época: Sep 14, 2026, 22:36 UTC

1 58364C 23177P   26257.94215278  .00021816  00000+0  12347-2 0  2579
2 58364  43.0008  31.2514 0013350 290.1227 137.9300 15.12192133    16

Acompanhe STARLINK-30904 em tempo real com AllMySat

Download on the App Store